Location: Newark
(45.5000°N, 11.4167°E)
Time: 00:25:24
(UTC+00:00)

Explorer 11/Cluster Stage 4 - Pass Details

Date: 27 August 2019
Orbit: 467 x 1259 km, 28.8° (Epoch: 22 October)

Event Time Altitude Azimuth Distance (km) Brightness Sun altitude
Rises 12:28:33 0° 253° (WSW) 4,187 10.7 51.3°
Reaches altitude 10° 12:33:03 10° 232° (SW) 3,230 10.5 50.9°
Maximum altitude 12:37:08 15° 202° (SSW) 2,849 10.4 50.5°
Drops below altitude 10° 12:41:09 10° 171° (S) 3,131 10.2 50.1°
Sets 12:45:24 0° 150° (SSE) 3,980 10.4 49.7°
